EW3867 Weather Reports


Display with metric or nautical units.
time (UTC)temp
F
wind
direction
speed
MPH
gust
MPH
rain 1hr
in
rain 24hr
in
rain mn
in
humidity
%
barometer
mb
20260510164153 69 124 0.0 4.0 0.00 0.00 0.00 13 1010.7
20260510163140 68 105 0.0 8.0 0.00 0.00 0.00 14 1010.7
20260510162115 68 105 0.0 0.0 0.00 0.00 0.00 14 1010.6
20260510161108 68 176 0.0 0.0 0.00 0.00 0.00 15 1010.6
20260510160034 67 195 0.0 6.0 0.00 0.00 0.00 15 1010.6
20260510155044 67 153 0.0 7.0 0.00 0.00 0.00 16 1010.6
20260510154107 65 184 0.0 1.0 0.00 0.00 0.00 16 1010.5
20260510153124 65 184 0.0 8.0 0.00 0.00 0.00 16 1010.4
20260510150950 64 355 0.0 0.0 0.00 0.00 0.00 16 1010.3
20260510150006 63 355 0.0 0.0 0.00 0.00 0.00 18 1010.3
20260510144938 62 355 0.0 2.0 0.00 0.00 0.00 19 1010.4
20260510143946 61 355 0.0 0.0 0.00 0.00 0.00 18 1010.3
20260510142953 60 355 0.0 0.0 0.00 0.00 0.00 20 1010.2
20260510141924 57 355 0.0 0.0 0.00 0.00 0.00 20 1010.2
20260510140926 55 355 0.0 0.0 0.00 0.00 0.00 20 1010.2
20260510135947 54 355 0.0 0.0 0.00 0.00 0.00 22 1010.1
20260510134950 53 355 0.0 0.0 0.00 0.00 0.00 23 1009.9
20260510134013 52 355 0.0 0.0 0.00 0.00 0.00 23 1009.9
20260510132943 49 355 0.0 0.0 0.00 0.00 0.00 25 1009.7
20260510131921 48 355 0.0 0.0 0.00 0.00 0.00 26 1009.7
20260510130906 47 355 0.0 1.0 0.00 0.00 0.00 26 1009.7
20260510124751 45 350 1.0 8.0 0.00 0.00 0.00 26 1009.5
20260510123808 43 355 1.0 8.0 0.00 0.00 0.00 27 1009.4
20260510122821 41 355 0.0 1.0 0.00 0.00 0.00 28 1009.2
20260510120719 40 355 0.0 4.0 0.00 0.00 0.00 28 1008.9
20260510115727 40 355 0.0 0.0 0.00 0.00 0.00 28 1008.7
20260510114719 40 355 0.0 0.0 0.00 0.00 0.00 28 1008.6
20260510113703 39 355 0.0 0.0 0.00 0.00 0.00 29 1008.7
20260510112708 40 355 0.0 0.0 0.00 0.00 0.00 28 1008.7
20260510110529 43 355 0.0 0.0 0.00 0.00 0.00 24 1008.3
20260510104429 45 355 7.0 12.0 0.00 0.00 0.00 23 1008.1
20260510102220 42 345 0.0 7.0 0.00 0.00 0.00 26 1007.8
20260510101225 44 342 1.0 8.0 0.00 0.00 0.00 25 1007.7
20260510100153 44 337 0.0 5.0 0.00 0.00 0.00 25 1007.7
20260510095123 46 335 0.0 0.0 0.00 0.00 0.00 24 1007.7
20260510094126 48 335 0.0 0.0 0.00 0.00 0.00 22 1007.5
20260510093105 52 334 1.0 10.0 0.00 0.00 0.00 20 1007.4
20260510092109 52 330 0.0 8.0 0.00 0.00 0.00 20 1007.4
20260510091112 53 0 4.0 11.0 0.00 0.00 0.00 20 1007.3
20260510090135 53 331 6.0 12.0 0.00 0.00 0.00 20 1007.1
20260510085158 52 335 9.0 12.0 0.00 0.00 0.00 21 1007.1
20260510083029 52 342 4.0 11.0 0.00 0.00 0.00 21 1006.9
20260510082023 53 343 4.0 10.0 0.00 0.00 0.00 21 1007.0
20260510075908 53 345 3.0 9.0 0.00 0.00 0.00 22 1007.0
20260510074859 53 338 0.0 8.0 0.00 0.00 0.00 22 1007.0
20260510073853 52 346 0.0 7.0 0.00 0.00 0.00 24 1007.1
20260510072822 52 347 0.0 1.0 0.00 0.00 0.00 24 1007.1
20260510071800 52 348 0.0 9.0 0.00 0.00 0.00 25 1007.0
20260510070743 53 347 3.0 10.0 0.00 0.00 0.00 25 1007.1
20260510064530 51 350 1.0 9.0 0.00 0.00 0.00 28 1007.0
20260510062407 50 0 1.0 8.0 0.00 0.00 0.00 31 1006.8
20260510061341 50 14 0.0 7.0 0.00 0.00 0.00 32 1006.6
20260510060316 49 9 0.0 7.0 0.00 0.00 0.00 34 1006.6
20260510055252 47 9 0.0 0.0 0.00 0.00 0.00 36 1006.4
20260510054228 47 9 0.0 0.0 0.00 0.00 0.00 36 1006.5
20260510052030 50 9 0.0 0.0 0.00 0.00 0.00 35 1006.3
20260510051016 50 9 0.0 0.0 0.00 0.00 0.00 36 1006.3
20260510045953 50 9 0.0 0.0 0.00 0.00 0.00 36 1006.3
20260510044933 50 9 0.0 0.0 0.00 0.00 0.00 36 1006.3
20260510043957 50 9 0.0 0.0 0.00 0.00 0.00 34 1006.2
20260510042950 52 9 0.0 0.0 0.00 0.00 0.00 33 1006.1
20260510041955 52 9 0.0 0.0 0.00 0.00 0.00 33 1006.1
20260510040938 52 0 0.0 3.0 0.00 0.00 0.00 34 1006.1
20260510035918 54 0 0.0 0.0 0.00 0.00 0.00 32 1006.0
20260510034847 55 0 0.0 0.0 0.00 0.00 0.00 31 1005.8
20260510033849 56 0 0.0 1.0 0.00 0.00 0.00 30 1005.7
20260510032903 58 0 0.0 0.0 0.00 0.00 0.00 28 1005.5
20260510030739 60 0 0.0 1.0 0.00 0.00 0.00 26 1005.2
20260510025713 60 0 0.0 0.0 0.00 0.00 0.00 26 1005.1
20260510023454 62 0 0.0 0.0 0.00 0.00 0.00 25 1004.9
20260510021321 64 0 0.0 0.0 0.00 0.00 0.00 24 1004.7
20260510020344 65 0 0.0 0.0 0.00 0.00 0.00 24 1004.9
20260510015356 65 344 6.0 0.0 0.00 0.00 0.00 24 1004.8
20260510013253 67 343 16.0 23.0 0.00 0.00 0.00 23 1004.4
20260510012306 67 330 13.0 19.0 0.00 0.00 0.00 22 1004.4
20260510011241 67 349 13.0 25.0 0.00 0.00 0.00 23 1004.2
20260510010301 67 340 14.0 25.0 0.00 0.00 0.00 22 1004.2
20260510005240 68 347 9.0 21.0 0.00 0.00 0.00 22 1004.2
20260510004257 68 336 9.0 16.0 0.00 0.00 0.00 21 1003.9
20260510002140 71 0 4.0 15.0 0.00 0.00 0.00 20 1003.6
20260510001133 70 0 7.0 15.0 0.00 0.00 0.00 21 1003.6
20260510000150 71 331 15.0 20.0 0.00 0.00 0.00 20 1003.6
20260509235133 69 348 17.0 22.0 0.00 0.00 0.00 22 1003.5
20260509234118 70 355 17.0 23.0 0.00 0.00 0.00 21 1003.5
20260509233057 70 11 19.0 27.0 0.00 0.00 0.00 22 1003.5
20260509232028 71 355 19.0 27.0 0.00 0.00 0.00 21 1003.6
20260509231035 72 338 20.0 28.0 0.00 0.00 0.00 21 1003.5
20260509230001 73 0 19.0 28.0 0.00 0.00 0.00 21 1003.6
20260509224955 72 355 20.0 32.0 0.00 0.00 0.00 21 1003.5
20260509222821 72 355 20.0 28.0 0.00 0.00 0.00 20 1003.8
20260509221755 74 331 18.0 25.0 0.00 0.00 0.00 19 1003.5
20260509220817 73 348 17.0 25.0 0.00 0.00 0.00 18 1003.6
20260509215749 73 0 15.0 21.0 0.00 0.00 0.00 17 1003.7
20260509214749 73 0 9.0 17.0 0.00 0.00 0.00 18 1003.5
20260509201644 75 335 7.0 15.0 0.00 0.00 0.00 16 1004.2
20260509200702 76 0 8.0 21.0 0.00 0.00 0.00 15 1004.3
20260509195642 74 262 7.0 20.0 0.00 0.00 0.00 15 1004.2
20260509194623 74 0 4.0 7.0 0.00 0.00 0.00 17 1004.4
20260509193557 74 349 7.0 28.0 0.00 0.00 0.00 15 1004.1
20260509192602 74 339 10.0 21.0 0.00 0.00 0.00 16 1004.7
20260509191552 74 0 8.0 21.0 0.00 0.00 0.00 16 1004.8
20260509190550 76 0 8.0 18.0 0.00 0.00 0.00 15 1004.9
20260509185540 75 340 8.0 19.0 0.00 0.00 0.00 15 1005.0
20260509184548 76 265 11.0 20.0 0.00 0.00 0.00 16 1005.2
20260509183541 76 0 8.0 20.0 0.00 0.00 0.00 16 1005.1
20260509182526 76 238 6.0 17.0 0.00 0.00 0.00 17 1005.4
20260509181522 75 0 7.0 17.0 0.00 0.00 0.00 17 1005.5
20260509180528 74 0 9.0 23.0 0.00 0.00 0.00 18 1005.7
20260509174341 74 0 11.0 22.0 0.00 0.00 0.00 17 1005.7
20260509172202 74 0 13.0 29.0 0.00 0.00 0.00 18 1005.9
20260509164917 74 0 6.0 22.0 0.00 0.00 0.00 18 1006.0